Regional Weather Roundup
Issued by NWS

Home | Current Version | Previous Version | Graphics & Text | Print | Product List | Glossary On
Versions: 1 2 3 4 5 6 7 8 9 10 11 12 13 14 15 16 17 18 19 20 21 22 23 24 25 26 27 28 29 30 31 32 33 34 35 36 37 38 39 40 41 42 43 44 45 46 47 48 49 50
000
ASUS43 KMKX 020821
RWRWI

WISCONSIN REGIONAL WEATHER ROUNDUP
NATIONAL WEATHER SERVICE MILWAUKEE/SULLIVAN WI
300 AM CDT SAT AUG 02 2014

NOTE: "FAIR" INDICATES FEW OR NO CLOUDS BELOW 12,000 FEET WITH NO
SIGNIFICANT WEATHER AND/OR OBSTRUCTIONS TO VISIBILITY.

WIZ001-002-006>008-014>016-023>028-020900-
NORTHWEST WISCONSIN

CITY           SKY/WX    TMP DP  RH WIND       PRES   REMARKS
SUPERIOR ARPT  CLEAR     53  51  95 CALM      30.12S
ASHLAND        MOCLDY    56  56 100 CALM      30.12R FOG
HAYWARD        PTCLDY    58  56  93 CALM      30.12S
SIREN          PTCLDY    58  56  92 CALM      30.11R
RICE LAKE      PTCLDY    59  57  95 CALM      30.13S FOG
LADYSMITH      CLEAR     57  55  94 E3        30.14S FOG
EAU CLAIRE     CLEAR     60  59  96 N3        30.10R
MENOMONIE      SUNNY     61  60  96 CALM      30.11R FOG
NEW RICHMOND   CLEAR     61  59  94 CALM      30.11R
OSCEOLA        CLEAR     61  61  99 CALM      30.13R
$$

WIZ003>005-009-010-017-018-020900-
NORTH CENTRAL WISCONSIN

CITY           SKY/WX    TMP DP  RH WIND       PRES   REMARKS
WOODRUFF       PTCLDY    52  45  77 CALM      30.15R
RHINELANDER    CLEAR     50  50 100 CALM      30.14R
EAGLE RIVER    FOG       48  48 100 CALM      30.14R VSB 3/4
LAND O LAKES   CLEAR     45  45 100 CALM      30.16R
PHILLIPS       PTCLDY    53  52  97 CALM      30.14R
TOMAHAWK       FOG       48  47  96 CALM      30.14R VSB 1
MEDFORD        CLEAR     53  53  99 CALM      30.13S FOG
MERRILL        FOG       52  52 100 CALM      30.12S VSB 1/2
$$

WIZ029-030-035-036-043>047-020900-
CENTRAL WISCONSIN

CITY           SKY/WX    TMP DP  RH WIND       PRES   REMARKS
WAUSAU         CLEAR     57  57 100 N3        30.10S FOG
MOSINEE        CLEAR     55  55 100 W3        30.13R FOG
MARSHFIELD     FOG       57  56  96 CALM      30.12R VSB 3/4
STEVENS POINT  CLEAR     54  53  99 S5        30.13S FOG
WAUPACA        CLEAR     57  56  94 W3        30.12S
WAUTOMA        CLEAR     52  51  96 CALM      30.12S
WISC RAPIDS    CLEAR     56  54  93 SW5       30.14R
CAMP DOUGLAS   CLEAR     54  54 100 CALM      30.12R
$$

WIZ011>013-019>022-031-037>040-048>050-020900-
NORTHEAST WISCONSIN

CITY           SKY/WX    TMP DP  RH WIND       PRES   REMARKS
ANTIGO         PTCLDY    51  51 100 CALM      30.13R FOG
STURGEON BAY   CLEAR     57  55  94 CALM      30.09F
GREEN BAY      CLEAR     59  57  93 W5        30.09S
MANITOWOC      CLEAR     63  57  81 NW5       30.08F
APPLETON       CLEAR     55  54  94 W7        30.11S
CLINTONVILLE   CLEAR     55  54  94 W6        30.11R
OSHKOSH        CLEAR     60  56  86 CALM      30.10S
$$

WIZ032>034-041-042-053>061-020900-
SOUTHWEST WISCONSIN

CITY           SKY/WX    TMP DP  RH WIND       PRES   REMARKS
LA CROSSE      CLEAR     63  58  83 E5        30.10S
SPARTA         CLEAR     56  54  95 CALM      30.11F
VIROQUA        FAIR      59  54  81 CALM      30.12S
BOSCOBEL       CLEAR     56  52  86 CALM      30.11S
PRAIRIE DU CHI CLEAR     59  54  84 CALM      30.10F
PLATTEVILLE    FAIR      60  57  91 CALM      30.12S
$$

WIZ056-057-062-063-064-067-068-020900-
SOUTH CENTRAL WISCONSIN

CITY           SKY/WX    TMP DP  RH WIND       PRES   REMARKS
BARABOO/DELLS  CLEAR     56  55  93 CALM      30.11S
LONE ROCK      CLEAR     59  54  83 CALM      30.11S
WATERTOWN      CLEAR     57  57  99 CALM      30.10S
MADISON        CLEAR     57  55  93 CALM      30.11R FOG
MIDDLETON      FAIR      57  56  95 CALM      30.11S
MONROE         CLEAR     61  55  82 NW7       30.10S
JANESVILLE     CLEAR     57  54  88 CALM      30.10S
$$

WIZ051-052-058>065-066-070>072-020900-
SOUTHEAST WISCONSIN

CITY           SKY/WX    TMP DP  RH WIND       PRES   REMARKS
MILWAUKEE      PTCLDY    60  55  83 NW7       30.09S
WAUKESHA       CLEAR     57  55  94 NW5       30.11S
MILWAUKEE/TIMM CLEAR     59  54  82 CALM      30.10S
RACINE         CLEAR     58  54  86 SW3       30.11R
BURLINGTON       N/A     53  52  99 CALM      30.10S FOG
KENOSHA        CLEAR     57  55  93 CALM      30.11R
FOND DU LAC    CLEAR     55  52  89 S5        30.10F
SHEBOYGAN      CLEAR     59  55  87 MISG      30.09S
WEST BEND      CLEAR     59  54  82 W3        30.10S
JUNEAU         CLEAR     59  55  86 CALM      30.12S
$$

LSZ147-162-020900-
LAKE SUPERIOR

STATION/POSITION TIME  TEMP    WIND        PRES    WAVE
                       AIR SEA DIR/SP/G            HT/PER
                 (UTC) (F)     (DEG/KT/KT) (MB)    (FT/S)
W MID LAKE BUOY  0750   51 46   20/  6/  6 1019.8S   0
PORT WING        0700   56     170/  2/  4 1019.6
SAXON HARBOR     0700             CALM     1019.3S
$$

LMZ867-665-643>646-020900-
LAKE MICHIGAN

STATION/POSITION TIME  TEMP    WIND        PRES    WAVE
                       AIR SEA DIR/SP/G            HT/PER
                 (UTC) (F)     (DEG/KT/KT) (MB)    (FT/S)
N MID LAKE BUOY  0750   60 57   30/  8/  8 1018.4F   0
NORTHPORT PIER   0700   63     120/  3/  3 1018.6F
SISTER BAY       0741   61      CALM  /  3   N/A
ALGOMA LAKESHORE 0736          340/  7/  8   N/A
KEWAUNEE LAKESHO 0800   57     340/  2/  3 1018.0R
SHEBOYGAN LAKESH 0800   67     290/ 12/ 14 1018.7F
PORT WASHINGTON  0740   63     300/  7/ 12 1019.3S
ATWATER BUOY     0800   62     250/  4     1020.1R
MILWAUKEE LAKESH 0800   63     270/  1/  3   N/A
S MID LAKE BUOY  0750   64 64   30/  4/  4 1018.6F   1
KENOSHA   LAKESH 0800   63     310/  5/  6 1019.0R
$$

TC  - TEMPERATURE IN CELSIUS
VSB - VISIBILITY IN STATUTE MILES
WCI - WIND CHILL INDEX
HX  - HEAT INDEX




USA.gov is the U.S. government's official web portal to all federal, state and local government web resources and services.